This is the latest recevied weather packets stored in our database for station/object KP4CRN. If no packets are shown the sender has not sent any weather packets the latest 10 day(s).
| Time | Temp. | Humidity | Pressure | Rain* | Wind** | Luminosity | Snow |
|---|---|---|---|---|---|---|---|
| 1778087270 | 33.33° C | 58% | 1017.4 hPa | 0 mm | - | 78 W/m² | - |
| 1778086966 | 32.78° C | 58% | 1017.7 hPa | 0 mm | - | 80 W/m² | - |
| 1778086665 | 32.78° C | 58% | 1017.7 hPa | 0 mm | - | 77 W/m² | - |
| 1778086362 | 33.33° C | 56% | 1017.7 hPa | 0 mm | - | 655 W/m² | - |
| 1778086058 | 32.78° C | 58% | 1017.8 hPa | 0 mm | - | 828 W/m² | - |
| 1778085755 | 33.33° C | 57% | 1017.8 hPa | 0 mm | - | 855 W/m² | - |
| 1778085452 | 33.33° C | 57% | 1017.8 hPa | 0 mm | - | 830 W/m² | - |
| 1778085147 | 33.33° C | 58% | 1018.2 hPa | 0 mm | - | 709 W/m² | - |
| 1778084843 | 32.78° C | 59% | 1018.2 hPa | 0 mm | - | 861 W/m² | - |
| 1778084541 | 32.78° C | 59% | 1018.1 hPa | 0 mm | - | 832 W/m² | - |
| 1778084238 | 32.78° C | 59% | 1018.1 hPa | 0 mm | - | 837 W/m² | - |
| 1778083935 | 32.78° C | 59% | 1018.1 hPa | 0 mm | - | 828 W/m² | - |
| 1778083633 | 32.78° C | 58% | 1018.3 hPa | 0 mm | - | 827 W/m² | - |
| 1778083329 | 32.78° C | 59% | 1018.4 hPa | 0 mm | - | 828 W/m² | - |
| 1778083028 | 32.78° C | 60% | 1018.6 hPa | 0 mm | - | 833 W/m² | - |
| 1778082724 | 32.78° C | 61% | 1018.5 hPa | 0 mm | - | 826 W/m² | - |
| 1778081592 | 32.78° C | 62% | 1018.8 hPa | 0 mm | - | 816 W/m² | - |
| 1778081289 | 32.22° C | 62% | 1018.8 hPa | 0 mm | - | 804 W/m² | - |
| 1778080986 | 32.22° C | 61% | 1018.8 hPa | 0 mm | - | 803 W/m² | - |
| 1778080685 | 32.22° C | 65% | 1018.8 hPa | 0 mm | - | 808 W/m² | - |
| 1778080381 | 31.67° C | 66% | 1018.9 hPa | 0 mm | - | 818 W/m² | - |
| 1778080078 | 31.67° C | 64% | 1018.9 hPa | 0 mm | - | 382 W/m² | - |
| 1778079775 | 32.22° C | 66% | 1018.9 hPa | 0 mm | - | 803 W/m² | - |
| 1778079472 | 31.67° C | 67% | 1018.9 hPa | 0 mm | - | 790 W/m² | - |
| 1778079168 | 31.67° C | 66% | 1018.9 hPa | 0 mm | - | 784 W/m² | - |
* Rain latest hour (hover to see other rain measurements)
** Current wind speed in m/s (hover to see current wind gust speed)